Location: Unspecified
(0.0000°N, 0.0000°E)
Time: 15:21:18
(UTC+00:00)

Vanguard 1 Rocket - Pass Details

Date: 23 January 2020
Orbit: 650 x 4226 km, 34.3° (Epoch: 24 February)

Event Time Altitude Azimuth Distance (km) Brightness Sun altitude
Rises 19:42:54 0° 292° (WNW) 8,344 13.0 -21.4°
Reaches altitude 10° 19:49:03 10° 287° (WNW) 7,418 12.7 -22.8°
Maximum altitude 20:13:15 47° 220° (SW) 4,338 11.0 -28.5°
Drops below altitude 10° 20:29:38 10° 148° (SSE) 5,170 11.1 -32.2°
Sets 20:33:05 0° 142° (SE) 5,768 11.4 -33.0°
